When you browse on this site, cookies collect data to enhance your experience and personalize the content and advertising you see.
Visit our Privacy Policy to learn more. By continuing to use the site, you agree to this use of cookies and data.
  • In United Kingdom
  • List of Countries
  • For 7 days
  • Water Temperature
  • Weather Map
  • Weather Widgets
  • user-avatar
    Login

    Hourly Weather Kafr Yasif

    Today, 30 May, Saturday

    Time Temperature Precipitation Wind Pressure Humidity
    00:00 +18°C° 0 mm 3 mps 758 mmHg 78%
    01:00 +17°C° 0 mm 3 mps 758 mmHg 78%
    02:00 +17°C° 0 mm 3 mps 757 mmHg 78%
    03:00 +17°C° 0 mm 2 mps 758 mmHg 78%
    04:00 +17°C° 0 mm 2 mps 758 mmHg 78%
    05:00 +17°C° 0 mm 2 mps 758 mmHg 78%
    06:00 +18°C° 0 mm 2 mps 758 mmHg 70%
    07:00 +21°C° 0 mm 1 mps 758 mmHg 62%
    08:00 +23°C° 0 mm 1 mps 758 mmHg 53%
    09:00 +24°C° 0 mm 2 mps 758 mmHg 50%
    10:00 +25°C° 0 mm 3 mps 758 mmHg 47%
    11:00 +26°C° 0 mm 4 mps 758 mmHg 44%
    12:00 +26°C° 0 mm 4 mps 758 mmHg 45%
    13:00 +26°C° 0 mm 5 mps 758 mmHg 45%
    14:00 +26°C° 0 mm 6 mps 757 mmHg 46%
    15:00 +24°C° 0 mm 6 mps 757 mmHg 49%
    16:00 +23°C° 0 mm 6 mps 757 mmHg 52%
    17:00 +23°C° 0 mm 6 mps 757 mmHg 55%
    18:00 +21°C° 0 mm 5 mps 757 mmHg 62%
    19:00 +20°C° 0 mm 5 mps 757 mmHg 68%
    20:00 +19°C° 0 mm 4 mps 757 mmHg 74%
    21:00 +19°C° 0 mm 4 mps 757 mmHg 75%
    22:00 +18°C° 0 mm 4 mps 757 mmHg 77%
    23:00 +18°C° 0 mm 4 mps 758 mmHg 78%

    Tomorrow, 31 May, Sunday

    Time Temperature Precipitation Wind Pressure Humidity
    00:00 +18°C° 0 mm 3 mps 757 mmHg 79%
    01:00 +17°C° 0 mm 3 mps 757 mmHg 81%
    02:00 +17°C° 0 mm 3 mps 757 mmHg 82%
    03:00 +17°C° 0 mm 2 mps 757 mmHg 82%
    04:00 +17°C° 0 mm 2 mps 757 mmHg 81%
    05:00 +17°C° 0 mm 2 mps 757 mmHg 81%
    06:00 +19°C° 0 mm 2 mps 757 mmHg 71%
    07:00 +21°C° 0 mm 2 mps 757 mmHg 61%
    08:00 +24°C° 0 mm 2 mps 757 mmHg 51%
    09:00 +25°C° 0 mm 3 mps 757 mmHg 48%
    10:00 +26°C° 0 mm 3 mps 757 mmHg 45%
    11:00 +27°C° 0 mm 4 mps 757 mmHg 42%
    12:00 +27°C° 0 mm 5 mps 757 mmHg 43%
    13:00 +27°C° 0 mm 5 mps 756 mmHg 44%
    14:00 +27°C° 0 mm 5 mps 755 mmHg 46%
    15:00 +26°C° 0 mm 6 mps 755 mmHg 49%
    16:00 +24°C° 0 mm 6 mps 755 mmHg 53%
    17:00 +23°C° 0 mm 6 mps 755 mmHg 57%
    18:00 +22°C° 0 mm 5 mps 755 mmHg 62%
    19:00 +21°C° 0 mm 4 mps 755 mmHg 67%
    20:00 +19°C° 0 mm 3 mps 756 mmHg 72%
    21:00 +19°C° 0 mm 3 mps 756 mmHg 73%
    22:00 +19°C° 0 mm 3 mps 756 mmHg 74%
    23:00 +19°C° 0 mm 3 mps 755 mmHg 75%

    Day after tomorrow, 1 June, Monday

    Time Temperature Precipitation Wind Pressure Humidity
    00:00 +18°C° 0 mm 3 mps 755 mmHg 76%
    01:00 +18°C° 0 mm 3 mps 755 mmHg 76%
    02:00 +18°C° 0 mm 2 mps 755 mmHg 77%
    03:00 +18°C° 0 mm 2 mps 755 mmHg 77%
    04:00 +18°C° 0 mm 2 mps 755 mmHg 76%
    05:00 +19°C° 0 mm 1 mps 755 mmHg 76%
    06:00 +21°C° 0 mm 1 mps 755 mmHg 65%
    07:00 +23°C° 0 mm 1 mps 755 mmHg 54%
    08:00 +26°C° 0 mm 1 mps 755 mmHg 43%
    09:00 +27°C° 0 mm 2 mps 755 mmHg 41%
    10:00 +28°C° 0 mm 3 mps 755 mmHg 39%
    11:00 +29°C° 0 mm 4 mps 755 mmHg 37%
    12:00 +29°C° 0 mm 4 mps 754 mmHg 38%
    13:00 +29°C° 0 mm 5 mps 754 mmHg 39%
    14:00 +29°C° 0 mm 6 mps 754 mmHg 40%
    15:00 +29°C° 0 mm 6 mps 754 mmHg 43%
    16:00 +28°C° 0 mm 6 mps 753 mmHg 46%
    17:00 +27°C° 0 mm 6 mps 753 mmHg 49%
    18:00 +26°C° 0 mm 5 mps 753 mmHg 52%
    19:00 +23°C° 0 mm 5 mps 753 mmHg 55%
    20:00 +22°C° 0 mm 4 mps 753 mmHg 58%
    21:00 +22°C° 0 mm 3 mps 753 mmHg 53%
    22:00 +24°C° 0 mm 2 mps 752 mmHg 48%
    23:00 +24°C° 0 mm 1 mps 752 mmHg 43%

    2 June, Tuesday

    Time Temperature Precipitation Wind Pressure Humidity
    00:00 +24°C° 0 mm 2 mps 751 mmHg 42%
    01:00 +24°C° 0 mm 2 mps 751 mmHg 42%
    02:00 +24°C° 0 mm 2 mps 750 mmHg 41%
    03:00 +24°C° 0 mm 2 mps 751 mmHg 43%
    04:00 +24°C° 0 mm 2 mps 751 mmHg 45%
    05:00 +24°C° 0 mm 2 mps 751 mmHg 46%
    06:00 +26°C° 0 mm 2 mps 751 mmHg 41%
    07:00 +28°C° 0 mm 2 mps 751 mmHg 36%
    08:00 +31°C° 0 mm 3 mps 751 mmHg 30%
    09:00 +34°C° 0 mm 3 mps 751 mmHg 27%
    10:00 +36°C° 0 mm 3 mps 751 mmHg 24%
    11:00 +38°C° 0 mm 4 mps 751 mmHg 20%
    12:00 +38°C° 0 mm 4 mps 750 mmHg 20%
    13:00 +40°C° 0 mm 4 mps 749 mmHg 20%
    14:00 +40°C° 0 mm 4 mps 749 mmHg 20%
    15:00 +38°C° 0 mm 4 mps 748 mmHg 21%
    16:00 +38°C° 0 mm 3 mps 748 mmHg 23%
    17:00 +37°C° 0 mm 3 mps 747 mmHg 24%
    18:00 +34°C° 0 mm 3 mps 747 mmHg 31%
    19:00 +31°C° 0 mm 3 mps 747 mmHg 37%
    20:00 +28°C° 0 mm 3 mps 747 mmHg 43%
    21:00 +27°C° 0 mm 3 mps 748 mmHg 49%
    22:00 +27°C° 0 mm 3 mps 748 mmHg 54%
    23:00 +26°C° 0 mm 3 mps 749 mmHg 60%

    3 June, Wednesday

    Time Temperature Precipitation Wind Pressure Humidity
    00:00 +25°C° 0 mm 3 mps 749 mmHg 69%
    01:00 +24°C° 0 mm 3 mps 749 mmHg 79%
    02:00 +22°C° 0 mm 3 mps 750 mmHg 88%
    03:00 +21°C° 0 mm 3 mps 750 mmHg 88%
    04:00 +21°C° 0 mm 3 mps 750 mmHg 89%
    05:00 +21°C° 0 mm 3 mps 751 mmHg 89%
    06:00 +22°C° 0 mm 3 mps 751 mmHg 81%
    07:00 +24°C° 0 mm 3 mps 751 mmHg 74%
    08:00 +25°C° 0 mm 4 mps 752 mmHg 66%
    09:00 +26°C° 0 mm 4 mps 752 mmHg 62%
    10:00 +27°C° 0 mm 5 mps 752 mmHg 58%
    11:00 +28°C° 0 mm 5 mps 752 mmHg 54%
    12:00 +28°C° 0 mm 5 mps 752 mmHg 54%
    13:00 +28°C° 0 mm 5 mps 752 mmHg 54%
    14:00 +27°C° 0 mm 5 mps 752 mmHg 53%
    15:00 +27°C° 0 mm 5 mps 752 mmHg 57%
    16:00 +26°C° 0 mm 5 mps 752 mmHg 61%
    17:00 +25°C° 0 mm 4 mps 752 mmHg 65%
    18:00 +24°C° 0 mm 3 mps 752 mmHg 71%
    19:00 +21°C° 0 mm 2 mps 752 mmHg 77%
    20:00 +21°C° 0 mm 1 mps 753 mmHg 83%
    21:00 +21°C° 0 mm 1 mps 753 mmHg 82%
    22:00 +20°C° 0 mm 1 mps 753 mmHg 81%
    23:00 +18°C° 0 mm 0 mps 753 mmHg 80%

    4 June, Thursday

    Time Temperature Precipitation Wind Pressure Humidity
    00:00 +20°C° 0 mm 1 mps 753 mmHg 78%
    01:00 +20°C° 0 mm 1 mps 752 mmHg 77%
    02:00 +20°C° 0 mm 1 mps 752 mmHg 75%
    03:00 +20°C° 0 mm 1 mps 752 mmHg 73%
    04:00 +20°C° 0 mm 1 mps 752 mmHg 70%
    05:00 +20°C° 0 mm 1 mps 752 mmHg 68%
    06:00 +22°C° 0 mm 1 mps 753 mmHg 60%
    07:00 +24°C° 0 mm 1 mps 753 mmHg 52%
    08:00 +26°C° 0 mm 1 mps 753 mmHg 45%
    09:00 +27°C° 0 mm 2 mps 754 mmHg 44%
    10:00 +28°C° 0 mm 3 mps 754 mmHg 44%
    11:00 +29°C° 0 mm 3 mps 754 mmHg 43%
    12:00 +29°C° 0 mm 4 mps 754 mmHg 43%
    13:00 +29°C° 0 mm 4 mps 754 mmHg 42%
    14:00 +29°C° 0 mm 5 mps 754 mmHg 42%
    15:00 +28°C° 0 mm 5 mps 754 mmHg 44%
    16:00 +27°C° 0 mm 4 mps 754 mmHg 46%
    17:00 +27°C° 0 mm 4 mps 754 mmHg 47%
    18:00 +25°C° 0 mm 4 mps 754 mmHg 55%
    19:00 +22°C° 0 mm 3 mps 754 mmHg 63%
    20:00 +21°C° 0 mm 3 mps 755 mmHg 70%
    21:00 +20°C° 0 mm 2 mps 755 mmHg 73%
    22:00 +20°C° 0 mm 2 mps 755 mmHg 75%
    23:00 +19°C° 0 mm 2 mps 755 mmHg 77%
    Show more